Total_Precipitation_Accumulation
1.46 1.48 1.40 1.61 1.72 1.77 1.84 1.87 1.80 1.69 1.65 1.47 1.47 1.50 1.54 1.42 1.55 1.72 2.22 2.70 3.31 4.15 4.33 3.94 3.63 3.52 3.24 3.07 3.21 3.17 3.22 3.28 3.30 3.28 3.29 3.66 3.82 3.42 3.34 3.34 3.39 3.82 4.26
1.30 1.51 1.41 1.41 1.55 1.75 1.89 1.89 1.84 1.89 1.85 1.64 1.62 1.67 1.64 1.58 1.61 1.69 1.93 2.02 2.25 2.94 3.70 4.10 4.17 3.96 3.56 3.35 3.26 3.25 3.41 3.37 3.25 3.15 3.13 3.36 3.60 3.32 3.27 3.39 3.40 3.72 4.08
1.22 1.47 1.40 1.31 1.33 1.50 1.69 1.94 2.02 2.03 1.80 1.72 1.76 1.75 1.63 1.61 1.61 1.81 1.88 1.96 1.90 2.08 2.65 3.18 3.71 3.88 3.92 3.76 3.45 3.27 3.47 3.46 3.33 3.17 3.11 3.13 3.39 3.38 3.36 3.43 3.37 3.56 3.75
1.02 1.27 1.37 1.28 1.27 1.47 1.74 2.02 2.22 2.27 2.06 2.02 2.07 1.97 1.75 1.69 1.63 1.77 1.84 1.95 2.08 1.87 1.92 2.13 2.56 3.15 3.66 3.73 3.70 3.57 3.61 3.53 3.28 3.15 2.96 2.88 3.11 3.27 3.38 3.37 3.28 3.42 3.55
0.95 1.21 1.44 1.48 1.46 1.65 1.80 1.81 2.08 2.24 2.34 2.25 2.07 1.94 1.88 1.88 1.84 1.78 1.91 1.92 1.99 1.95 1.81 1.58 1.67 2.15 2.80 3.27 3.53 3.60 3.82 3.72 3.36 3.19 2.85 2.67 2.81 3.07 3.41 3.13 3.07 3.13 3.38
1.16 1.39 1.64 1.67 1.75 1.85 1.97 2.19 2.48 2.49 2.41 2.44 2.15 1.90 1.79 1.83 1.92 2.00 1.98 1.98 2.05 1.89 1.73 1.57 1.52 1.51 2.05 2.64 3.04 3.39 3.62 3.69 3.49 3.42 3.07 2.64 2.61 2.86 3.26 3.09 3.00 3.07 3.29
1.34 1.57 1.77 2.00 2.14 2.05 2.08 2.36 2.67 2.77 2.55 2.40 2.50 2.35 2.16 1.96 1.96 1.93 1.92 2.00 2.04 2.00 1.89 1.83 1.75 1.64 1.78 2.05 2.34 2.86 3.27 3.49 3.57 3.59 3.37 2.96 2.75 2.78 2.95 2.83 2.76 3.02 3.36
1.44 1.46 1.74 1.93 2.03 2.17 2.21 2.32 2.65 2.99 2.74 2.46 2.72 3.17 2.92 2.69 2.15 1.80 1.93 1.98 2.09 2.10 2.04 1.90 1.91 1.82 1.83 2.02 1.79 1.95 2.51 3.04 3.50 3.63 3.47 3.23 3.02 2.79 2.85 2.76 2.63 2.75 3.01
1.79 1.75 1.79 1.93 2.02 2.23 2.40 2.43 2.51 2.89 2.93 2.65 2.61 3.26 3.29 3.13 2.85 2.28 1.92 1.96 2.15 2.25 2.28 2.19 2.04 1.98 1.88 2.01 1.83 1.55 1.80 2.16 2.83 3.36 3.58 3.44 3.20 2.91 2.84 2.81 2.75 2.81 2.85
2.11 2.11 2.12 2.22 2.17 2.17 2.29 2.27 2.27 2.54 2.89 2.93 2.71 2.54 2.51 2.68 3.09 2.84 2.24 2.05 2.09 2.13 2.29 2.16 2.17 2.21 2.12 2.05 1.93 1.58 1.38 1.55 2.20 3.03 3.57 3.51 3.31 3.12 2.97 2.92 2.78 2.74 2.75
2.75 2.71 2.61 2.44 2.25 2.20 2.28 2.33 2.35 2.47 2.60 2.77 2.73 2.54 2.45 2.42 2.35 2.65 2.64 2.36 2.13 2.04 2.16 2.21 2.24 2.25 2.24 2.18 2.08 1.71 1.33 1.20 1.53 2.35 3.09 3.34 3.34 3.24 3.14 3.06 2.87 2.68 2.53
2.75 2.70 2.50 2.21 2.05 2.01 2.11 2.28 2.32 2.41 2.42 2.50 2.45 2.29 2.27 2.31 2.34 2.53 2.51 2.46 2.41 2.06 1.91 2.00 2.07 2.12 2.02 2.02 1.88 1.94 1.54 1.23 1.21 1.63 2.22 2.73 3.09 3.32 3.29 3.34 3.15 2.86 2.62
2.11 2.13 2.11 2.08 1.98 1.88 1.95 2.18 2.28 2.35 2.35 2.34 2.27 2.17 2.16 2.05 2.13 2.45 2.62 2.52 2.37 2.04 1.84 1.77 1.87 1.89 1.72 1.80 1.91 2.07 1.75 1.47 1.30 1.38 1.67 2.03 2.35 2.76 3.20 3.51 3.62 3.46 3.27
1.85 1.89 1.93 1.97 1.92 1.86 1.87 1.99 2.12 2.24 2.25 2.19 2.13 2.24 2.25 2.02 2.08 2.17 2.34 2.59 2.47 2.18 1.96 1.73 1.69 1.60 1.60 1.65 1.88 2.10 1.58 1.51 1.38 1.29 1.32 1.54 1.84 2.09 2.45 3.00 3.43 3.54 3.53
1.47 1.57 1.69 1.79 1.75 1.73 1.74 1.89 2.03 2.06 2.14 2.22 2.24 2.24 2.27 2.17 2.16 2.18 2.36 2.54 2.60 2.38 2.14 1.89 1.70 1.53 1.57 1.63 1.90 1.76 1.48 1.52 1.43 1.34 1.31 1.33 1.48 1.74 1.98 2.17 2.41 2.55 2.69
1.36 1.39 1.35 1.38 1.38 1.43 1.45 1.55 1.72 1.80 1.83 1.93 1.98 2.04 2.05 2.03 2.14 2.14 2.24 2.41 2.44 2.40 2.25 1.96 1.76 1.66 1.71 1.63 1.78 1.62 1.58 1.74 1.57 1.39 1.30 1.30 1.35 1.48 1.59 1.68 1.78 1.82 1.83
1.08 1.10 1.01 1.03 1.13 1.15 1.11 1.21 1.32 1.40 1.50 1.61 1.63 1.68 1.74 1.74 1.91 1.95 2.06 2.21 2.31 2.30 2.08 1.86 1.73 1.74 1.78 1.80 1.75 1.62 1.57 1.60 1.58 1.45 1.28 1.23 1.28 1.36 1.43 1.56 1.62 1.60 1.59
0.83 0.83 0.80 0.79 0.88 1.00 1.03 1.12 1.21 1.20 1.29 1.43 1.52 1.53 1.50 1.52 1.64 1.72 1.82 1.92 2.10 2.19 2.10 1.94 1.79 1.69 1.60 1.67 1.81 1.82 1.77 1.69 1.70 1.75 1.59 1.45 1.42 1.36 1.32 1.45 1.58 1.54 1.50
0.80 0.78 0.73 0.76 0.80 0.86 1.01 1.08 1.10 1.10 1.10 1.13 1.22 1.25 1.27 1.37 1.52 1.56 1.58 1.71 1.89 1.99 2.11 2.00 1.88 1.78 1.62 1.59 1.76 1.73 1.75 1.98 1.87 1.92 2.04 1.87 1.66 1.48 1.33 1.38 1.50 1.48 1.43
0.83 0.82 0.74 0.72 0.81 0.89 0.97 1.08 1.09 1.04 1.01 1.04 1.10 1.09 1.04 1.09 1.23 1.38 1.45 1.63 1.84 2.03 2.14 2.10 2.05 1.95 1.83 1.71 1.77 1.90 1.93 2.01 2.03 1.81 1.86 1.90 1.91 1.75 1.52 1.39 1.45 1.51 1.55
0.81 0.80 0.77 0.80 0.85 0.87 0.88 1.05 1.05 1.01 1.03 0.99 1.00 1.04 1.02 1.04 1.07 1.14 1.13 1.33 1.57 1.86 2.03 2.12 2.10 2.08 1.98 1.88 1.76 1.92 1.98 2.09 2.19 2.14 2.04 1.88 1.88 1.73 1.59 1.51 1.48 1.52 1.64
0.88 0.85 0.82 0.85 0.82 0.75 0.97 1.07 1.03 1.02 1.08 1.12 1.06 1.03 1.00 0.99 1.09 1.09 1.06 1.11 1.28 1.49 1.70 1.79 1.84 1.86 1.89 1.96 2.05 2.06 2.01 2.04 2.11 2.12 2.00 2.06 2.05 1.97 1.71 1.50 1.53 1.58 1.66
0.83 0.83 0.82 0.81 0.76 0.75 0.82 0.82 0.90 0.96 1.07 1.12 1.05 1.11 1.13 1.01 1.07 1.10 1.17 1.12 1.06 1.13 1.34 1.54 1.61 1.62 1.71 1.77 2.02 2.06 2.04 2.04 1.92 1.95 1.86 1.97 1.94 1.90 1.76 1.69 1.72 1.61 1.66
0.73 0.78 0.87 0.88 0.77 0.69 0.73 0.69 0.77 0.85 0.97 1.01 1.00 1.07 1.28 1.29 1.17 1.18 1.25 1.30 1.15 1.00 1.06 1.16 1.33 1.49 1.56 1.74 2.06 2.29 2.24 1.99 1.88 1.88 1.80 1.88 1.82 1.77 1.69 1.63 1.71 1.63 1.61
0.62 0.65 0.71 0.78 0.76 0.72 0.74 0.72 0.74 0.78 0.87 0.87 0.89 1.03 1.16 1.26 1.25 1.27 1.20 1.24 1.25 1.11 1.09 1.18 1.19 1.30 1.49 1.66 1.94 2.26 2.33 2.20 2.00 1.87 1.73 1.71 1.75 1.78 1.81 1.71 1.66 1.70 1.67
0.62 0.64 0.65 0.63 0.63 0.66 0.72 0.72 0.78 0.77 0.78 0.74 0.77 0.95 1.18 1.16 1.18 1.26 1.22 1.28 1.36 1.18 1.10 1.21 1.20 1.22 1.28 1.54 1.93 2.14 2.29 2.26 2.12 2.03 1.83 1.77 1.80 1.85 2.12 2.02 1.78 1.68 1.65